User: anonymous   Login
Location: Unspecified
(0.0000°N, 0.0000°E)
Time: 01:48:23
(UTC+00:00)
Language:

Meteosat 1 - Orbit

View from above orbital plane
View from above orbital plane
View from above satellite
View from above satellite

Ground track
Ground track

The orbit data is extracted from the following two-line orbital elements,

1 10489U 77108A   18053.59272749 -.00000331 +00000-0 +00000-0 0  9995
2 10489 011.9867 317.7212 0016102 002.9461 177.5984 01.00295209106805
Epoch (UTC): 22 February 2018 14:13:31
Eccentricity: 0.0016102
inclination: 11.9867°
perigee height: 35712 km
apogee height: 35847 km
right ascension of ascending node: 317.7212°
argument of perigee: 2.9461°
revolutions per day: 1.00295209
mean anomaly at epoch: 177.5984°
orbit number at epoch: 10680

The dashed part of the orbit path shows where the satellite is in the earth's shadow,  

DLR